Location: *
(46.1333°S, 161.2167°W)
Time: 04:05:51
(UTC+00:00)

Cosmos 2208 Rocket - Pass Details

Date: 15 July 2020
Orbit: 754 x 806 km, 74.0° (Epoch: 10 August)

Event Time Altitude Azimuth Distance (km) Brightness Sun altitude
Rises 17:03:40 0° 319° (NW) 3,219 7.0 -13.1°
Reaches altitude 10° 17:06:09 10° 312° (NW) 2,297 6.2 -12.7°
Maximum altitude 17:11:04 41° 241° (WSW) 1,098 4.4 -11.9°
Drops below altitude 10° 17:16:02 10° 170° (S) 2,319 6.4 -11.1°
Sets 17:18:34 0° 163° (SSE) 3,254 7.2 -10.7°
